EW2974 Weather Reports


Display with metric or nautical units.
time (UTC)temp
F
wind
direction
speed
MPH
gust
MPH
rain 1hr
in
rain 24hr
in
rain mn
in
humidity
%
barometer
mb
20260510224404 57 55 0.0 1.0 0.00 0.49 0.10 35 1017.8
20260510223404 58 44 0.0 1.0 0.00 0.49 0.10 35 1017.7
20260510222904 59 42 0.0 1.0 0.00 0.49 0.10 34 1017.7
20260510222404 59 253 0.0 1.0 0.00 0.49 0.10 36 1017.7
20260510221904 59 253 0.0 5.0 0.00 0.49 0.10 35 1017.7
20260510221407 59 267 1.0 1.0 0.00 0.49 0.10 34 1017.4
20260510220904 59 339 0.0 5.0 0.00 0.49 0.10 37 1017.4
20260510220404 59 254 2.0 13.0 0.00 0.49 0.10 33 1017.3
20260510215904 59 227 0.0 3.0 0.00 0.49 0.10 36 1017.3
20260510214904 59 19 1.0 6.0 0.00 0.49 0.10 37 1017.2
20260510213904 59 62 1.0 6.0 0.00 0.49 0.10 36 1017.1
20260510213404 59 59 1.0 5.0 0.00 0.49 0.10 34 1017.0
20260510212405 61 265 2.0 14.0 0.00 0.49 0.10 35 1016.8
20260510211904 61 269 1.0 8.0 0.00 0.49 0.10 32 1016.7
20260510211405 60 216 0.0 0.0 0.00 0.49 0.10 37 1016.7
20260510210904 60 252 0.0 0.0 0.00 0.49 0.10 32 1016.7
20260510210404 60 248 0.0 0.0 0.00 0.49 0.10 35 1016.6
20260510205904 60 38 0.0 0.0 0.00 0.49 0.10 35 1016.5
20260510204904 61 256 0.0 0.0 0.00 0.49 0.10 39 1016.5
20260510203905 61 63 0.0 0.0 0.00 0.49 0.10 34 1016.3
20260510203404 60 86 0.0 0.0 0.00 0.49 0.10 37 1016.3
20260510202904 60 209 0.0 0.0 0.00 0.49 0.10 37 1016.3
20260510202405 60 59 0.0 0.0 0.00 0.49 0.10 35 1016.2
20260510201904 60 35 0.0 0.0 0.00 0.49 0.10 37 1016.3
20260510201404 60 62 0.0 1.0 0.00 0.49 0.10 35 1016.2
20260510200904 61 64 0.0 3.0 0.00 0.49 0.10 35 1016.1
20260510195904 61 13 0.0 1.0 0.00 0.49 0.10 36 1016.0
20260510195404 61 251 0.0 1.0 0.00 0.49 0.10 34 1016.0
20260510194904 62 206 2.0 14.0 0.00 0.49 0.10 34 1016.0
20260510194404 62 240 2.0 6.0 0.00 0.49 0.10 35 1016.0
20260510193904 62 355 1.0 8.0 0.00 0.49 0.10 35 1016.1
20260510193404 62 268 2.0 6.0 0.00 0.49 0.10 35 1016.1
20260510192404 61 41 0.0 5.0 0.00 0.49 0.10 36 1016.2
20260510191904 61 39 0.0 8.0 0.00 0.49 0.10 36 1016.2
20260510191404 62 96 0.0 5.0 0.00 0.49 0.10 40 1016.1
20260510190904 62 11 0.0 6.0 0.00 0.49 0.10 37 1016.0
20260510190404 62 28 0.0 0.0 0.00 0.49 0.10 36 1015.8
20260510185404 63 264 0.0 0.0 0.00 0.49 0.10 38 1015.7
20260510184904 63 260 2.0 8.0 0.00 0.49 0.10 33 1015.4
20260510184404 63 174 0.0 8.0 0.00 0.49 0.10 41 1015.4
20260510183404 62 283 0.0 1.0 0.00 0.49 0.10 36 1015.3
20260510182903 62 262 3.0 12.0 0.00 0.49 0.10 36 1015.4
20260510181904 63 17 0.0 3.0 0.00 0.49 0.10 38 1015.3
20260510181404 63 255 1.0 5.0 0.00 0.49 0.10 40 1015.3
20260510180904 63 267 0.0 1.0 0.00 0.49 0.10 40 1015.4
20260510180404 62 273 0.0 3.0 0.00 0.49 0.10 42 1015.4
20260510175904 62 89 0.0 0.0 0.00 0.49 0.10 44 1015.3
20260510175404 61 46 1.0 5.0 0.00 0.49 0.10 41 1015.3
20260510174904 62 39 1.0 6.0 0.00 0.49 0.10 41 1015.4
20260510174404 62 227 1.0 6.0 0.00 0.49 0.10 41 1015.4
20260510173404 62 40 0.0 5.0 0.00 0.49 0.10 42 1015.6
20260510171904 61 143 1.0 5.0 0.00 0.49 0.10 43 1015.6
20260510171404 62 46 0.0 0.0 0.00 0.49 0.10 43 1015.5
20260510170904 62 189 0.0 0.0 0.00 0.49 0.10 44 1015.5
20260510170404 61 63 0.0 0.0 0.00 0.49 0.10 45 1015.6
20260510165904 61 242 0.0 9.0 0.00 0.49 0.10 42 1015.6
20260510165404 61 273 0.0 3.0 0.00 0.49 0.10 44 1015.6
20260510164904 61 248 0.0 5.0 0.00 0.49 0.10 46 1015.6
20260510164404 60 67 0.0 5.0 0.00 0.49 0.10 46 1015.5
20260510163904 60 90 0.0 9.0 0.00 0.49 0.10 45 1015.4
20260510162905 60 40 0.0 6.0 0.00 0.49 0.10 51 1015.5
20260510162404 59 21 0.0 1.0 0.00 0.49 0.10 51 1015.5
20260510161404 58 49 1.0 6.0 0.00 0.49 0.10 49 1015.5
20260510160404 58 67 0.0 5.0 0.00 0.49 0.10 50 1015.5
20260510155904 58 56 0.0 1.0 0.00 0.49 0.10 50 1015.4
20260510155404 58 57 3.0 6.0 0.00 0.49 0.10 51 1015.5
20260510154905 57 48 1.0 5.0 0.00 0.49 0.10 52 1015.5
20260510154404 57 55 0.0 1.0 0.00 0.49 0.10 56 1015.5
20260510153904 57 35 0.0 1.0 0.00 0.49 0.10 49 1015.5
20260510153404 57 50 0.0 3.0 0.00 0.49 0.10 51 1015.4
20260510152904 56 51 0.0 5.0 0.00 0.49 0.10 54 1015.5
20260510152404 55 38 0.0 1.0 0.00 0.49 0.10 53 1015.5
20260510151904 55 28 0.0 1.0 0.00 0.49 0.10 54 1015.4
20260510150904 55 66 3.0 5.0 0.00 0.49 0.10 60 1015.2
20260510150404 54 63 1.0 5.0 0.00 0.49 0.10 57 1015.4
20260510145904 54 38 0.0 6.0 0.00 0.49 0.10 60 1015.3
20260510145404 54 35 0.0 0.0 0.00 0.49 0.10 60 1015.3
20260510144904 53 350 0.0 0.0 0.00 0.49 0.10 62 1015.4
20260510144404 53 350 0.0 0.0 0.00 0.49 0.10 59 1015.3
20260510143904 53 355 0.0 0.0 0.00 0.49 0.10 59 1015.3
20260510143404 53 329 0.0 0.0 0.00 0.49 0.10 61 1015.2
20260510142904 52 33 0.0 0.0 0.00 0.49 0.10 62 1015.2
20260510142404 52 35 1.0 6.0 0.00 0.49 0.10 62 1015.2
20260510141404 51 17 0.0 3.0 0.00 0.49 0.10 65 1015.1
20260510140904 51 36 1.0 5.0 0.00 0.49 0.10 68 1015.0
20260510140404 51 20 0.0 1.0 0.00 0.49 0.10 68 1014.9
20260510135904 51 328 0.0 0.0 0.00 0.49 0.10 73 1014.9
20260510135404 50 328 0.0 0.0 0.00 0.49 0.10 73 1014.8
20260510134905 50 328 0.0 0.0 0.00 0.49 0.10 71 1014.8
20260510134404 50 46 0.0 1.0 0.00 0.49 0.10 75 1014.9
20260510133904 50 42 0.0 3.0 0.00 0.49 0.10 75 1014.8
20260510133404 50 37 1.0 8.0 0.00 0.49 0.10 75 1014.7
20260510132404 49 36 0.0 0.0 0.00 0.49 0.10 76 1014.4
20260510131904 49 39 0.0 0.0 0.00 0.49 0.10 79 1014.5
20260510131405 49 21 0.0 0.0 0.00 0.49 0.10 76 1014.2
20260510130404 49 51 1.0 5.0 0.00 0.49 0.10 79 1014.1
20260510125904 49 47 0.0 0.0 0.00 0.49 0.10 78 1014.1
20260510125404 48 47 0.0 0.0 0.00 0.49 0.10 78 1014.0
20260510124904 48 49 0.0 0.0 0.00 0.49 0.10 79 1014.0
20260510124405 49 49 0.0 0.0 0.00 0.49 0.10 81 1013.9
20260510123904 49 49 0.0 0.0 0.00 0.49 0.10 80 1013.8
20260510123403 48 49 0.0 0.0 0.00 0.49 0.10 78 1013.7
20260510122904 48 47 0.0 0.0 0.00 0.49 0.10 81 1013.6
20260510122404 48 47 0.0 0.0 0.00 0.49 0.10 81 1013.4
20260510121404 48 47 0.0 0.0 0.00 0.49 0.10 81 1013.5
20260510120904 48 47 0.0 0.0 0.00 0.49 0.10 82 1013.3
20260510120404 48 47 0.0 0.0 0.00 0.49 0.10 84 1013.1
20260510115904 48 47 0.0 0.0 0.00 0.50 0.10 85 1012.9
20260510115404 48 47 0.0 0.0 0.00 0.50 0.10 85 1013.0
20260510114904 48 47 0.0 0.0 0.00 0.50 0.10 86 1012.6
20260510114404 48 47 1.0 5.0 0.00 0.50 0.10 86 1012.4
20260510113404 48 32 0.0 0.0 0.00 0.50 0.10 88 1012.2
20260510112404 48 32 0.0 5.0 0.00 0.50 0.10 88 1012.1
20260510111904 48 295 0.0 0.0 0.00 0.50 0.10 88 1012.2
20260510111404 48 294 0.0 0.0 0.00 0.50 0.10 89 1012.0
20260510110904 48 294 0.0 0.0 0.00 0.50 0.10 89 1011.8
20260510110404 48 294 0.0 0.0 0.00 0.50 0.10 90 1011.3
20260510104404 48 293 0.0 0.0 0.00 0.50 0.10 88 1011.0
20260510102404 49 293 0.0 0.0 0.00 0.50 0.10 89 1010.7
20260510101904 49 293 0.0 0.0 0.00 0.50 0.10 89 1010.6
20260510101404 49 293 0.0 0.0 0.00 0.50 0.10 90 1010.5
20260510100904 49 293 0.0 0.0 0.00 0.50 0.10 90 1010.3
20260510100405 49 293 0.0 0.0 0.00 0.50 0.10 90 1010.2
20260510095904 49 293 0.0 0.0 0.00 0.50 0.10 90 1010.1
20260510094903 49 293 0.0 0.0 0.00 0.51 0.10 92 1010.0
20260510094404 49 293 0.0 0.0 0.00 0.51 0.10 91 1009.8
20260510093904 49 293 0.0 0.0 0.00 0.51 0.10 91 1009.7
20260510092904 49 293 0.0 0.0 0.00 0.52 0.10 91 1009.5
20260510092404 49 293 0.0 0.0 0.00 0.52 0.10 90 1009.4
20260510091904 49 293 0.0 0.0 0.00 0.52 0.10 90 1009.2
20260510090404 50 293 0.0 0.0 0.00 0.52 0.10 89 1009.0
20260510085404 50 293 0.0 0.0 0.00 0.52 0.10 90 1008.8
20260510084404 50 293 0.0 0.0 0.00 0.52 0.10 91 1009.0
20260510083404 51 293 0.0 0.0 0.00 0.54 0.10 91 1008.7
20260510082904 51 293 0.0 0.0 0.00 0.54 0.10 91 1008.6
20260510082404 51 293 0.0 0.0 0.00 0.55 0.10 91 1008.5
20260510081904 51 293 0.0 0.0 0.00 0.56 0.10 91 1008.4
20260510081404 51 293 0.0 0.0 0.00 0.57 0.10 91 1008.4
20260510080403 51 293 0.0 0.0 0.00 0.58 0.10 91 1008.2
20260510075904 52 293 0.0 0.0 0.00 0.58 0.10 91 1008.1
20260510075403 52 293 0.0 0.0 0.00 0.58 0.10 91 1008.1
20260510074904 52 293 0.0 0.0 0.00 0.59 0.10 91 1008.1
20260510074403 52 293 0.0 0.0 0.00 0.60 0.10 90 1008.0
20260510073904 53 293 0.0 0.0 0.00 0.61 0.10 91 1007.9
20260510073403 53 293 0.0 0.0 0.00 0.61 0.10 92 1007.9
20260510072904 53 293 0.0 0.0 0.00 0.61 0.10 93 1007.8
20260510072404 54 263 0.0 0.0 0.00 0.61 0.10 94 1007.7
20260510071904 54 263 0.0 0.0 0.00 0.62 0.10 94 1007.5
20260510071404 54 263 0.0 0.0 0.00 0.63 0.10 94 1007.4
20260510070904 54 263 0.0 0.0 0.00 0.63 0.10 94 1007.5
20260510070404 54 263 0.0 0.0 0.00 0.64 0.10 94 1007.4
20260510065903 54 263 0.0 0.0 0.00 0.64 0.10 94 1007.4
20260510065404 54 263 0.0 0.0 0.00 0.64 0.10 94 1007.4
20260510064904 54 263 0.0 0.0 0.00 0.64 0.10 94 1007.2
20260510064404 55 263 0.0 0.0 0.00 0.65 0.10 94 1007.2
20260510063904 55 263 0.0 0.0 0.00 0.65 0.10 94 1007.2
20260510063404 55 263 0.0 0.0 0.00 0.65 0.10 94 1007.3
20260510062404 55 263 0.0 0.0 0.00 0.66 0.10 94 1007.4
20260510061404 55 263 0.0 0.0 0.00 0.66 0.10 94 1007.4
20260510060904 55 264 0.0 0.0 0.00 0.67 0.10 94 1007.7
20260510060404 55 264 0.0 0.0 0.00 0.67 0.10 94 1007.8
20260510055903 55 264 0.0 8.0 0.00 0.68 0.10 94 1007.6
20260510055404 54 31 1.0 8.0 0.00 0.69 0.10 94 1007.3
20260510054904 54 274 0.0 0.0 0.00 0.69 0.10 94 1006.9
20260510054404 54 274 0.0 0.0 0.00 0.69 0.10 94 1006.3
20260510053904 54 234 0.0 0.0 0.01 0.70 0.10 94 1006.3
20260510053404 54 234 0.0 0.0 0.01 0.71 0.10 94 1006.3
20260510052905 54 234 0.0 0.0 0.03 0.72 0.10 94 1006.3
20260510052405 54 234 0.0 0.0 0.04 0.73 0.10 94 1006.2
20260510051905 54 234 0.0 0.0 0.06 0.73 0.10 94 1006.1
20260510050905 54 202 0.0 0.0 0.09 0.74 0.10 93 1006.1
20260510050405 54 202 0.0 0.0 0.10 0.75 0.10 93 1006.2
20260510045905 55 202 0.0 0.0 0.10 0.75 0.10 93 1006.2
20260510045405 55 202 0.0 0.0 0.10 0.75 0.10 93 1006.3
20260510044405 55 202 0.0 0.0 0.10 0.75 0.10 93 1006.2
20260510043905 55 202 0.0 0.0 0.09 0.75 0.09 93 1006.3
20260510041905 55 218 2.0 12.0 0.04 0.71 0.04 93 1007.0
20260510041405 55 190 2.0 6.0 0.03 0.70 0.03 93 1006.8
20260510040905 55 259 0.0 0.0 0.02 0.68 0.01 93 1007.0
20260510040405 55 261 0.0 0.0 0.03 0.67 0.00 93 1007.2
20260510035905 55 261 0.0 0.0 0.04 0.68 0.68 93 1006.9
20260510035405 55 261 0.0 0.0 0.04 0.68 0.68 93 1006.7
20260510034905 55 261 0.0 0.0 0.04 0.68 0.68 93 1006.5
20260510034405 55 259 0.0 0.0 0.04 0.69 0.68 93 1006.6
20260510033905 55 259 0.0 0.0 0.04 0.70 0.68 93 1006.7
20260510033405 55 259 0.0 0.0 0.04 0.71 0.68 93 1006.5
20260510032905 55 259 0.0 0.0 0.04 0.71 0.68 93 1006.3
20260510032405 55 259 0.0 0.0 0.04 0.72 0.68 92 1006.2
20260510031405 55 269 1.0 3.0 0.04 0.72 0.68 93 1006.4
20260510030905 55 272 0.0 0.0 0.04 0.73 0.68 93 1006.7
20260510030405 55 263 7.0 12.0 0.01 0.70 0.65 94 1007.4
20260510025905 55 259 1.0 5.0 0.00 0.69 0.64 94 1007.2
20260510025408 55 254 0.0 0.0 0.00 0.70 0.64 94 1006.3
20260510024905 55 254 0.0 0.0 0.00 0.70 0.64 94 1006.1
20260510023406 54 254 0.0 0.0 0.00 0.71 0.64 93 1006.1
20260510022905 54 254 0.0 0.0 0.00 0.72 0.64 93 1006.1
20260510022405 54 254 0.0 0.0 0.00 0.72 0.64 93 1005.9
20260510021905 54 254 0.0 0.0 0.00 0.72 0.64 93 1005.9
20260510021405 54 254 0.0 0.0 0.00 0.72 0.64 93 1005.9
20260510020905 55 254 0.0 0.0 0.00 0.72 0.64 93 1005.9
20260510020405 55 254 0.0 0.0 0.00 0.72 0.64 93 1006.1
20260510015905 55 254 0.0 0.0 0.00 0.73 0.64 93 1006.2
20260510015405 55 254 0.0 0.0 0.00 0.73 0.64 93 1006.1
20260510014905 55 254 0.0 0.0 0.00 0.73 0.64 93 1006.1
20260510014405 55 254 0.0 0.0 0.00 0.74 0.64 93 1006.1
20260510013905 55 254 0.0 0.0 0.00 0.75 0.64 92 1006.0
20260510013404 55 254 0.0 0.0 0.00 0.75 0.64 92 1006.0
20260510012905 55 254 0.0 0.0 0.02 0.76 0.64 92 1006.0
20260510012405 55 254 0.0 0.0 0.04 0.76 0.64 92 1006.1
20260510010905 55 255 0.0 0.0 0.08 0.78 0.64 91 1005.8
20260510010406 55 255 0.0 0.0 0.09 0.78 0.64 91 1005.7
20260510005905 55 255 0.0 0.0 0.11 0.79 0.64 91 1005.6
20260510004405 55 255 0.0 0.0 0.34 0.80 0.64 91 1005.6
20260510003905 55 255 0.0 0.0 0.34 0.80 0.64 90 1005.5
20260510003405 55 231 0.0 6.0 0.35 0.81 0.64 91 1005.5
20260510002905 55 211 3.0 14.0 0.33 0.80 0.62 91 1006.0
20260510002405 55 276 0.0 1.0 0.31 0.78 0.60 91 1006.1
20260510001905 55 275 0.0 0.0 0.29 0.76 0.58 91 1006.1
20260510001405 55 276 0.0 0.0 0.27 0.74 0.56 90 1006.1
20260510000905 55 276 0.0 0.0 0.27 0.75 0.56 90 1005.9
20260510000404 55 276 0.0 0.0 0.26 0.74 0.55 88 1006.0
20260509235405 56 263 7.0 12.0 0.14 0.62 0.43 84 1006.3
20260509234905 58 274 2.0 13.0 0.03 0.51 0.32 80 1005.6
20260509234405 61 259 6.0 12.0 0.01 0.49 0.30 72 1005.3
20260509233904 64 42 0.0 12.0 0.01 0.49 0.30 65 1004.6
20260509233405 66 277 1.0 6.0 0.00 0.48 0.29 60 1004.1
20260509232905 66 284 0.0 5.0 0.00 0.48 0.29 60 1002.8
20260509232405 67 209 0.0 5.0 0.00 0.48 0.29 57 1002.7
20260509231905 67 200 1.0 8.0 0.00 0.48 0.29 58 1002.9
20260509230905 67 249 0.0 6.0 0.00 0.49 0.29 56 1003.0
20260509230405 67 220 0.0 5.0 0.00 0.49 0.29 56 1003.0
20260509225905 68 200 0.0 0.0 0.00 0.49 0.29 56 1002.9
20260509225405 68 241 0.0 8.0 0.00 0.49 0.29 55 1002.6
20260509224905 68 272 2.0 16.0 0.00 0.50 0.29 56 1002.6